TimeCST,TemperatureF,Dew PointF,Humidity,Sea Level PressureIn,VisibilityMPH,Wind Direction,Wind SpeedMPH,Gust SpeedMPH,PrecipitationIn,Events,Conditions,WindDirDegrees,DateUTC
12:53 AM,32.0,24.1,73,30.27,10.0,WNW,3.5,-,N/A,,Clear,290,2013-01-17 06:53:00
1:53 AM,30.9,24.1,76,30.29,10.0,Calm,Calm,-,N/A,,Clear,0,2013-01-17 07:53:00
2:53 AM,28.9,24.1,82,30.29,10.0,Calm,Calm,-,N/A,,Clear,0,2013-01-17 08:53:00
3:53 AM,30.0,23.0,75,30.29,10.0,NW,3.5,-,N/A,,Clear,320,2013-01-17 09:53:00
4:53 AM,27.0,21.9,81,30.31,10.0,Calm,Calm,-,N/A,,Clear,0,2013-01-17 10:53:00
5:53 AM,26.6,23.0,86,30.31,10.0,Calm,Calm,-,N/A,,Clear,0,2013-01-17 11:53:00
6:53 AM,28.0,23.0,81,30.33,10.0,Calm,Calm,-,N/A,,Clear,0,2013-01-17 12:53:00
7:53 AM,28.9,24.1,82,30.35,10.0,Calm,Calm,-,N/A,,Clear,0,2013-01-17 13:53:00
8:53 AM,37.0,28.0,70,30.38,10.0,West,4.6,-,N/A,,Clear,260,2013-01-17 14:53:00
9:53 AM,43.0,28.0,56,30.41,10.0,Variable,3.5,-,N/A,,Clear,0,2013-01-17 15:53:00
10:53 AM,50.0,28.0,43,30.41,10.0,WNW,4.6,-,N/A,,Clear,300,2013-01-17 16:53:00
11:53 AM,55.0,28.9,37,30.39,10.0,NNW,3.5,-,N/A,,Clear,340,2013-01-17 17:53:00
12:09 PM,55.4,28.4,36,30.38,10.0,Calm,Calm,-,N/A,,Partly Cloudy,0,2013-01-17 18:09:00
12:53 PM,59.0,30.9,35,30.36,10.0,North,6.9,17.3,N/A,,Clear,350,2013-01-17 18:53:00
1:53 PM,61.0,32.0,34,30.34,10.0,NNW,5.8,-,N/A,,Clear,330,2013-01-17 19:53:00
2:53 PM,62.1,33.1,34,30.34,10.0,North,9.2,-,N/A,,Clear,360,2013-01-17 20:53:00
3:53 PM,62.1,33.1,34,30.35,10.0,NNW,8.1,-,N/A,,Clear,330,2013-01-17 21:53:00
4:53 PM,61.0,32.0,34,30.38,10.0,NNW,4.6,-,N/A,,Clear,340,2013-01-17 22:53:00
5:53 PM,57.0,32.0,39,30.39,10.0,Calm,Calm,-,N/A,,Clear,0,2013-01-17 23:53:00
6:53 PM,46.0,35.1,66,30.41,4.0,Calm,Calm,-,N/A,,Haze,0,2013-01-18 00:53:00
7:53 PM,43.0,34.0,71,30.43,8.0,Calm,Calm,-,N/A,,Clear,0,2013-01-18 01:53:00
8:53 PM,39.0,33.1,79,30.44,5.0,North,3.5,-,N/A,,Haze,10,2013-01-18 02:53:00
9:53 PM,39.9,34.0,79,30.46,10.0,Calm,Calm,-,N/A,,Clear,0,2013-01-18 03:53:00
10:53 PM,39.0,33.1,79,30.48,10.0,Calm,Calm,-,N/A,,Clear,0,2013-01-18 04:53:00
11:53 PM,37.0,32.0,82,30.48,10.0,Calm,Calm,-,N/A,,Clear,0,2013-01-18 05:53:00